GFSSE_925_rhum_120.txt.gz
RH
65 79 90 84 79 79 76 81 84 77 72 75 79 97 96 84 84 86 93 92 86 83 83 88 90 96 97 89 89 94 97 98 90 91 95 95 93 99 96 87 78 78 84
66 78 89 84 80 85 89 88 89 79 73 75 78 95 98 76 79 96 96 95 90 85 83 90 96 98 97 92 97 97 98 90 93 94 91 90 94 96 92 84 80 83 84
64 76 93 86 82 85 89 87 79 77 75 78 81 91 95 83 88 95 96 88 85 79 86 89 96 97 95 100 100 100 90 89 88 86 88 87 88 91 89 86 85 86 84
65 75 84 86 84 86 91 91 82 79 79 81 89 89 88 88 90 94 90 81 82 79 85 94 91 88 94 99 99 88 88 88 82 74 62 64 71 87 86 86 85 84 86
66 73 82 85 88 87 91 88 85 84 86 84 87 89 88 88 90 92 88 80 81 84 84 91 90 89 98 97 82 78 79 79 72 66 66 68 69 84 84 85 85 86 85
72 69 85 84 87 88 72 78 85 85 85 88 88 88 88 87 89 92 82 82 82 78 86 90 92 87 84 80 71 61 68 64 65 64 69 72 74 85 87 87 88 88 88
76 75 92 87 89 88 72 70 80 84 86 88 88 87 86 86 92 93 79 82 81 83 88 91 92 85 82 72 52 53 58 68 61 65 66 70 79 86 86 87 89 87 88
79 86 90 91 90 93 88 72 85 83 85 88 88 89 91 94 92 90 78 78 77 84 86 90 94 89 75 51 45 50 59 72 64 67 68 74 86 87 87 89 89 88 89
82 90 94 96 97 96 93 74 82 82 86 87 89 90 94 94 92 86 79 75 75 83 87 91 89 73 55 41 49 56 64 70 62 66 66 73 88 87 89 90 89 89 89
88 91 96 94 94 88 91 84 80 83 86 90 89 95 95 96 90 84 75 77 78 86 90 84 75 63 39 43 47 53 57 65 64 68 66 81 90 88 90 90 91 91 91
92 97 95 89 85 77 78 90 85 84 86 90 94 96 94 96 95 88 82 81 76 84 86 79 66 38 38 42 46 51 61 58 60 64 68 88 91 90 91 93 93 93 94
94 97 95 89 81 75 73 87 85 94 93 94 100 97 94 92 86 73 93 82 80 88 84 71 49 42 54 60 59 56 57 59 62 65 76 91 92 92 94 96 96 95 95
96 98 93 89 81 77 71 74 75 91 95 98 100 96 92 86 80 81 96 91 93 91 86 78 65 66 58 54 56 55 56 59 62 66 79 92 94 93 95 96 95 96 95
99 99 95 90 82 73 68 64 67 83 97 100 98 92 92 88 80 69 90 75 80 74 74 72 65 69 66 61 57 55 57 59 60 65 77 85 93 96 96 96 93 94 96
97 97 95 91 84 71 68 65 64 71 88 90 89 86 85 83 72 64 93 75 71 70 71 66 65 68 67 65 64 63 64 64 66 68 70 69 77 84 94 89 94 96 96
98 98 100 99 90 79 70 65 64 65 70 81 83 84 84 83 73 68 96 87 71 68 66 64 64 66 67 65 66 68 67 69 69 71 70 77 68 75 83 94 97 97 97
99 89 100 98 92 81 74 68 65 68 68 71 74 74 78 92 88 96 97 92 74 68 66 63 66 68 68 68 66 66 67 67 70 72 72 71 77 69 73 89 96 97 98
94 99 95 100 97 85 72 72 67 71 72 72 70 73 79 93 82 86 98 92 75 74 69 68 67 67 66 66 64 64 66 69 68 69 73 73 76 75 77 71 86 92 97
89 99 92 94 100 89 80 77 68 69 68 70 70 75 91 90 82 72 75 78 78 78 73 66 65 64 67 66 67 66 67 68 70 70 69 70 73 78 75 79 72 81 88
82 93 95 86 100 93 91 84 72 68 65 70 70 72 88 86 89 76 76 78 82 80 75 70 65 65 61 64 66 65 65 65 64 62 62 67 68 77 78 79 80 80 76
82 93 99 97 99 100 98 97 94 77 69 72 70 74 82 79 83 85 86 88 83 78 74 69 66 69 73 72 66 66 69 69 69 67 66 63 63 70 72 74 77 76 79
88 98 93 98 98 100 100 97 96 90 85 79 82 78 81 80 83 86 84 86 85 76 73 72 78 76 67 76 68 69 59 56 64 68 68 70 67 66 68 71 73 76 75
72 93 80 86 90 100 100 100 100 99 98 93 90 86 84 83 88 86 86 81 82 77 78 81 77 74 75 83 78 66 65 57 53 62 67 69 70 70 74 71 72 74 74
74 96 87 95 99 100 100 100 100 98 97 98 97 93 89 83 88 88 86 80 79 83 80 77 71 81 82 79 87 83 81 74 69 64 64 69 71 73 76 78 76 81 89
90 100 91 85 100 100 100 100 100 100 99 100 100 99 99 87 88 93 95 93 92 80 74 74 65 87 88 91 87 87 82 84 82 80 78 67 76 75 77 84 84 86 84
99 100 94 91 95 99 100 100 100 99 98 100 99 98 100 99 99 100 99 99 99 96 96 93 98 96 94 96 98 91 86 90 84 90 98 91 91 90 84 80 84 84 86

GFSSE_925_rhum_126.txt.gz
RH
88 74 78 82 75 74 79 84 86 88 98 96 95 87 91 92 96 86 87 77 74 82 85 85 89 92 91 92 97 96 99 100 94 91 90 92 88 87 85 82 84 85 85
77 76 82 83 79 76 79 88 86 87 91 87 92 92 96 95 97 97 91 82 83 93 94 89 86 90 98 100 99 99 97 87 84 82 78 79 87 89 87 82 84 83 84
77 89 88 82 80 79 81 89 85 88 89 87 91 88 95 96 96 97 95 85 89 94 96 94 88 96 98 97 96 96 81 74 68 70 73 83 86 86 88 82 83 87 82
65 92 94 90 88 79 86 90 88 87 88 87 92 87 90 93 96 96 91 88 92 96 94 83 91 94 92 92 92 80 74 72 69 68 75 81 84 85 84 83 84 82 83
67 85 88 88 86 80 89 90 89 84 86 86 90 86 87 87 96 95 80 83 92 92 92 88 91 90 93 96 83 71 63 64 67 70 75 78 83 83 85 85 84 83 86
74 78 81 77 86 81 87 90 89 81 78 84 89 88 85 89 94 78 74 87 89 90 91 92 95 98 98 90 80 56 58 63 65 69 74 80 85 87 90 83 85 86 83
79 86 82 70 80 82 82 91 90 87 80 85 90 89 85 87 90 79 85 85 86 89 89 97 96 98 72 64 58 59 60 62 66 74 80 84 86 86 87 86 86 87 87
82 90 87 71 74 81 81 92 91 91 87 85 90 89 87 87 87 84 83 85 85 89 90 96 99 69 48 43 50 59 60 62 68 77 82 81 84 82 86 82 87 86 82
52 86 96 81 74 78 84 85 89 90 86 79 87 90 90 87 87 80 81 85 84 88 94 99 99 61 36 40 60 61 61 64 68 74 80 83 83 84 88 87 86 87 87
46 50 94 98 80 77 81 82 88 91 84 81 84 91 92 89 85 79 79 84 87 91 93 100 70 39 35 41 62 61 61 61 69 76 82 85 87 88 89 90 90 90 92
47 44 53 89 99 76 83 85 87 89 87 84 88 95 92 89 87 81 79 85 90 93 92 78 52 32 36 46 59 59 59 60 64 70 80 85 89 89 91 92 92 93 93
40 46 46 64 76 93 90 87 87 88 89 89 96 96 93 90 87 83 82 90 92 93 87 64 36 33 36 49 56 54 54 59 63 69 82 86 90 91 93 95 95 95 95
43 46 48 47 56 97 85 89 91 87 90 92 98 94 92 92 90 88 85 93 96 94 79 54 34 37 36 49 54 52 54 59 66 66 79 87 92 93 93 96 96 96 95
46 53 54 42 45 93 97 96 84 88 91 94 98 89 89 92 90 87 87 97 99 88 70 35 39 50 49 44 51 50 52 58 62 63 72 79 92 95 96 94 88 83 86
52 57 60 48 47 92 95 96 78 83 85 88 95 93 89 93 93 89 89 95 94 86 61 31 54 51 48 49 49 50 52 55 62 62 54 68 78 88 96 92 85 90 86
50 61 72 51 56 74 99 98 78 76 80 86 95 92 94 90 87 83 85 91 83 77 58 57 60 54 50 48 48 52 54 57 60 65 63 54 60 65 77 94 97 96 95
51 60 76 64 68 93 99 95 98 69 80 93 94 92 90 82 79 74 76 81 74 68 60 59 58 58 55 54 54 57 58 60 60 64 67 66 57 59 65 83 97 98 96
58 69 81 66 96 85 87 85 85 83 91 95 88 94 86 77 75 67 68 72 65 63 60 57 58 58 56 56 57 58 58 59 61 63 66 68 69 70 63 62 75 92 97
66 70 78 66 98 85 81 84 82 95 89 94 95 95 87 76 73 66 68 63 61 60 57 57 58 58 60 59 58 58 59 60 61 61 63 66 67 71 72 73 70 67 76
72 74 71 69 99 91 84 94 92 98 92 94 97 94 80 86 79 62 69 65 60 58 57 58 60 60 61 59 58 59 60 61 63 64 63 63 63 66 67 72 75 76 74
75 81 70 92 100 83 90 98 96 93 86 89 93 92 84 84 80 69 66 68 61 60 60 59 61 60 61 59 59 59 59 59 60 60 60 60 59 61 66 69 73 73 76
74 82 79 97 100 62 77 93 92 73 60 67 74 80 84 79 78 72 69 71 64 64 64 60 60 61 62 62 60 69 83 71 66 66 66 66 64 62 61 63 66 68 71
66 82 78 99 99 70 79 95 99 63 63 64 63 70 74 71 73 76 78 72 66 68 67 62 61 63 68 66 69 72 85 82 66 62 62 64 64 64 65 65 65 66 67
59 70 74 100 96 89 99 92 94 97 72 68 71 71 74 67 69 75 73 68 68 70 69 65 64 66 69 73 70 76 76 73 83 82 64 66 67 69 71 70 70 70 70
60 69 83 100 99 91 96 84 92 98 78 72 70 78 76 77 67 67 69 69 71 72 71 68 68 70 71 76 76 79 78 74 73 83 90 77 76 79 82 84 86 80 78
67 77 100 100 100 87 79 76 91 100 86 77 75 82 82 85 74 68 70 68 75 73 72 72 72 74 79 85 83 82 79 81 86 88 95 92 89 80 80 83 87 87 86

GFSSE_925_rhum_129.txt.gz
RH
85 85 87 74 57 64 92 94 98 98 98 79 60 65 71 71 71 66 64 80 85 85 85 93 90 91 94 99 98 96 97 95 92 92 88 87 87 88 88 87 85 83 82
70 83 88 88 64 64 89 92 95 98 98 80 71 87 90 82 90 82 81 84 87 86 86 93 90 90 97 98 99 89 84 82 77 76 79 82 87 89 86 79 81 84 81
78 88 90 90 90 80 88 86 90 93 93 83 77 93 96 97 95 86 82 91 91 94 83 89 97 90 91 95 96 93 78 70 63 74 82 84 86 84 85 82 82 85 76
86 81 88 85 85 89 88 85 89 90 88 88 81 90 89 96 98 87 83 94 96 97 84 90 90 90 88 84 91 85 89 76 78 82 86 87 85 83 85 77 84 88 86
96 80 73 81 82 87 88 87 86 89 87 91 81 88 88 90 96 85 89 90 94 94 80 86 89 89 83 78 72 71 74 77 74 76 84 84 84 85 81 80 86 81 84
83 99 82 72 75 83 85 88 84 88 88 90 85 85 85 91 92 73 87 91 92 88 84 85 86 83 84 68 64 68 68 73 75 80 86 84 82 79 81 87 80 80 88
56 85 88 80 72 77 83 88 86 85 88 88 87 84 83 90 88 77 88 90 92 90 87 88 90 97 82 58 62 66 70 72 73 75 85 82 86 85 88 87 88 86 84
38 51 94 92 79 75 80 86 86 86 86 87 88 87 83 87 80 78 87 87 91 90 91 99 99 80 66 57 61 65 70 74 73 78 85 79 84 84 84 90 81 87 81
36 37 46 92 91 82 74 79 83 88 90 84 88 88 83 87 78 81 86 87 90 90 98 100 65 46 45 60 63 70 73 71 73 81 84 81 82 85 84 89 84 84 85
46 45 45 52 90 91 84 73 79 82 76 78 86 89 85 89 78 79 86 88 91 89 97 99 56 34 45 61 63 68 66 69 70 80 84 83 85 88 86 90 90 91 92
37 38 39 40 44 93 93 85 78 79 76 78 84 90 85 90 85 82 84 88 90 92 99 78 41 31 52 62 62 64 68 72 75 74 85 85 90 90 91 92 92 93 94
40 37 40 40 39 55 85 93 82 77 80 83 87 89 89 89 89 84 84 88 92 93 82 61 30 34 60 60 60 62 70 68 67 69 82 87 91 91 94 95 96 96 96
38 44 40 44 42 39 72 94 99 79 82 87 88 91 93 92 90 87 91 96 96 92 82 50 33 37 57 57 56 62 67 64 65 58 80 86 93 93 94 96 96 96 97
40 41 42 49 46 40 46 81 81 100 83 87 91 95 98 94 93 92 99 98 95 91 68 36 33 36 54 54 54 59 67 62 62 50 67 85 92 95 96 96 93 91 91
42 40 52 56 47 43 59 45 82 99 89 87 100 100 100 96 99 96 100 100 93 88 59 32 36 34 50 52 53 57 60 60 62 47 56 72 82 91 95 93 90 86 83
38 41 58 54 49 44 66 66 58 92 98 88 100 100 97 98 98 97 100 100 94 84 51 36 49 48 47 50 52 53 57 61 62 59 49 57 63 68 81 96 95 90 86
31 41 54 50 53 53 78 93 85 79 88 92 99 100 97 97 93 91 98 97 91 75 40 54 57 51 50 50 52 54 57 61 63 67 65 50 53 56 60 74 86 85 84
31 49 49 51 60 61 70 94 92 90 84 99 97 100 94 93 90 90 87 92 86 70 36 62 59 54 53 51 54 58 59 60 63 64 66 69 70 66 59 60 65 74 85
36 49 49 57 66 58 83 98 80 84 98 86 98 100 94 92 87 85 85 78 82 69 49 62 60 58 56 57 58 59 60 61 62 65 66 66 68 70 70 73 74 69 72
40 49 49 62 68 74 93 100 89 93 81 93 99 98 92 90 79 77 76 72 77 65 57 60 60 59 58 59 60 61 61 62 63 64 66 67 68 68 68 69 72 75 76
53 54 66 69 69 82 100 100 92 80 80 87 95 99 90 87 76 78 73 68 70 63 60 59 60 61 61 61 63 62 62 62 63 64 64 62 64 65 66 66 67 70 74
58 62 69 72 72 82 100 99 90 72 73 96 100 98 91 83 76 72 73 67 64 61 58 60 62 64 63 61 60 63 83 70 63 62 62 62 63 61 62 65 67 68 70
72 71 67 71 70 83 100 96 85 73 81 100 100 100 94 85 78 72 68 64 61 58 58 60 62 64 64 64 59 70 92 90 76 70 69 68 66 64 64 65 67 69 71
72 62 61 71 74 97 100 84 64 75 98 100 99 98 96 84 83 79 67 63 62 60 60 60 62 62 64 66 71 74 71 66 87 85 66 66 65 66 70 74 73 73 74
62 59 62 77 82 99 99 74 60 85 100 99 97 94 92 86 77 74 68 73 69 62 62 61 61 62 63 63 72 79 76 69 67 82 90 79 74 76 78 83 79 87 84
58 61 69 80 96 100 98 92 68 82 91 100 92 89 87 82 79 75 69 72 72 66 66 63 61 63 63 61 64 72 76 76 82 84 93 92 89 79 79 78 84 85 89

GFSSE_925_rhum_135.txt.gz
RH
94 91 84 87 84 90 94 95 92 80 71 69 83 88 86 81 93 98 95 91 87 90 92 96 95 92 96 98 98 100 85 87 93 86 83 84 86 85 86 82 78 79 84
95 94 86 84 83 88 90 91 93 77 78 82 94 95 81 81 87 96 96 90 90 89 91 93 94 90 89 96 94 97 99 95 81 82 83 82 83 84 83 77 82 78 77
93 95 85 85 87 83 90 87 87 76 82 92 96 99 87 84 88 88 88 86 88 90 88 95 95 97 99 99 99 99 97 83 78 80 84 82 83 77 82 74 82 80 82
97 95 87 86 85 82 86 89 89 80 88 91 98 99 88 85 88 89 88 93 98 81 85 91 96 95 94 96 96 96 92 81 80 84 84 79 84 81 85 82 83 83 75
99 99 94 84 82 83 85 88 90 82 91 91 93 96 79 75 88 90 86 86 85 81 80 90 90 87 85 83 96 95 82 82 83 83 80 79 82 79 83 87 82 84 84
93 97 94 93 80 80 85 87 87 88 86 89 90 91 85 69 87 89 90 83 75 92 87 87 89 90 87 86 94 85 76 86 86 84 80 79 82 83 84 88 79 89 83
61 90 87 84 88 83 81 80 85 87 82 85 86 87 90 69 81 91 92 85 81 86 86 85 88 82 79 78 90 73 70 81 81 82 81 82 80 77 87 82 78 88 84
35 41 77 87 88 88 85 84 82 85 88 78 84 86 92 77 67 88 89 88 81 85 84 83 75 73 75 76 73 73 72 78 80 82 82 82 81 84 88 86 84 83 84
37 34 35 50 88 87 85 86 83 84 80 85 84 88 86 83 75 88 90 88 83 84 83 84 68 71 71 70 70 72 71 74 79 85 83 84 82 85 86 85 88 88 82
30 30 31 32 36 73 87 87 86 86 82 80 83 88 85 88 76 89 91 88 83 88 85 84 68 68 69 71 71 73 67 78 81 83 83 83 86 85 87 88 89 90 91
33 29 28 28 26 29 34 72 87 84 87 83 82 81 86 92 86 90 92 91 86 86 94 77 67 64 67 68 71 74 70 75 81 80 84 85 87 87 90 90 92 93 94
43 36 31 29 30 28 25 29 67 89 87 85 84 82 86 92 87 83 88 92 89 85 83 70 64 66 68 72 75 75 74 68 77 82 83 85 88 90 93 96 96 96 96
46 47 43 37 31 29 29 24 28 53 83 83 86 84 89 91 88 84 91 97 94 89 89 64 58 70 69 75 74 71 68 68 71 79 83 86 90 92 94 96 95 93 90
35 43 45 43 38 33 32 33 32 37 64 85 85 85 85 90 90 99 97 98 94 95 84 48 50 71 72 72 70 72 72 72 71 75 82 86 91 94 96 89 90 92 91
27 26 34 48 41 35 33 36 40 40 62 78 85 87 87 90 98 99 100 100 95 92 72 42 50 69 69 69 68 70 70 71 66 68 73 82 85 90 96 91 88 91 92
26 25 26 39 48 36 31 36 40 41 50 79 86 87 96 98 100 100 99 100 100 90 71 34 42 67 68 65 65 70 67 69 63 58 64 69 73 72 90 94 97 96 97
23 23 26 28 39 44 35 32 40 44 44 56 85 87 99 100 100 100 99 100 99 91 72 37 40 66 65 62 61 66 68 66 64 52 56 57 62 69 70 90 97 97 96
28 28 26 26 35 45 41 36 40 45 45 62 89 81 91 100 100 99 100 100 99 93 78 40 40 62 62 60 58 66 67 66 65 57 52 52 55 56 60 61 76 87 90
29 28 26 25 29 36 41 44 44 49 57 66 91 89 90 99 99 98 100 100 96 96 83 39 39 59 60 55 57 62 66 66 64 67 66 58 61 64 63 61 67 74 74
26 24 24 27 31 28 41 48 58 64 68 97 98 87 85 100 99 100 100 100 90 96 83 40 36 52 53 54 59 62 67 66 65 67 67 68 69 69 70 71 72 73 76
20 20 20 24 30 48 69 73 84 96 78 80 100 94 96 93 100 100 100 100 90 94 85 41 40 45 55 56 67 73 71 69 69 69 69 70 70 70 70 71 73 74 74
22 20 20 24 37 51 62 67 67 66 80 77 89 100 96 98 98 99 98 100 100 95 87 46 53 68 63 58 69 75 88 78 74 71 70 70 70 70 70 71 73 76 78
24 21 21 23 35 56 61 70 72 80 90 98 95 99 100 92 77 78 100 100 100 92 86 51 57 67 70 66 64 68 94 91 81 71 71 70 70 68 67 68 70 74 75
25 22 21 25 30 47 67 79 84 84 88 92 98 98 92 92 83 85 89 100 100 91 82 58 60 68 67 74 71 63 62 68 87 89 76 69 68 71 73 73 74 77 79
26 26 21 26 44 57 78 74 82 88 85 84 94 99 96 83 83 77 95 99 97 89 80 60 68 74 69 72 72 70 75 74 72 82 91 87 80 78 76 78 80 76 79
24 26 30 50 70 78 79 79 81 90 91 89 94 98 93 85 89 83 68 94 94 88 80 64 69 72 72 68 71 68 68 74 78 79 91 91 85 85 85 85 80 78 85

GFSSE_925_rhum_138.txt.gz
RH
93 93 86 88 88 88 87 81 84 96 95 86 94 99 99 99 99 97 96 88 76 85 95 92 96 95 97 98 99 97 92 92 95 90 85 83 87 87 83 75 78 76 87
87 98 86 85 85 85 85 88 92 89 96 98 99 99 100 99 99 97 94 92 93 92 97 95 92 96 98 100 97 84 94 95 83 84 82 84 84 76 82 75 73 92 83
94 95 88 82 80 83 86 88 94 91 89 95 99 99 98 100 99 96 93 90 90 92 96 95 88 96 97 98 98 99 98 83 80 83 82 77 80 78 80 75 80 78 84
91 92 85 86 81 83 85 87 91 93 93 95 98 99 97 96 95 95 90 89 89 88 92 93 92 95 98 99 98 97 93 76 85 80 83 76 78 87 80 84 78 81 84
98 94 85 85 84 80 82 83 86 88 89 94 98 96 88 89 90 88 88 93 79 87 87 95 95 96 97 95 96 93 79 79 83 80 82 82 78 84 79 80 83 78 82
96 97 90 88 84 85 86 82 83 82 86 87 93 91 82 86 90 88 90 86 77 87 89 93 89 82 80 89 93 92 77 81 82 79 78 78 78 85 83 83 84 79 82
88 94 90 88 84 83 85 87 84 84 85 86 87 87 76 72 81 81 79 77 82 82 90 91 89 87 87 83 83 75 81 81 82 78 79 79 79 92 83 84 84 80 78
51 88 91 88 86 84 85 84 86 85 82 85 87 87 77 67 85 88 85 71 91 82 89 93 84 80 81 81 73 70 80 78 80 81 81 81 78 81 82 87 83 82 84
37 37 54 90 94 90 89 82 83 84 84 81 85 89 87 64 84 89 91 70 88 86 89 84 78 72 74 70 71 69 76 79 78 83 82 82 80 82 85 85 86 85 82
34 30 29 32 52 86 86 84 84 85 86 85 81 87 87 68 76 88 89 80 85 85 87 77 73 70 69 66 67 70 74 76 83 85 84 81 80 85 85 85 85 88 89
35 34 32 28 26 27 36 73 85 87 83 87 85 81 83 83 74 91 91 85 82 85 85 78 68 72 67 68 69 71 71 76 83 84 84 86 84 85 86 90 94 94 94
39 36 35 34 31 27 25 25 40 84 86 85 86 85 86 88 76 86 93 89 84 86 86 86 69 68 69 70 74 72 70 77 76 82 84 84 84 88 93 96 97 96 97
35 38 37 38 36 35 29 25 23 29 72 84 83 85 88 85 87 84 95 96 93 88 82 90 74 67 67 71 75 76 72 72 76 77 85 86 89 91 94 97 97 96 95
30 35 33 36 38 36 34 31 27 24 29 59 84 84 85 88 87 90 96 100 94 93 80 84 74 66 68 73 74 72 67 68 70 75 81 87 90 94 96 96 97 98 92
34 29 30 29 40 38 35 32 32 30 32 44 83 86 84 88 97 93 99 100 95 91 80 65 62 68 70 76 75 72 72 73 71 71 74 81 88 94 97 96 96 96 94
26 26 25 28 33 41 38 33 30 32 35 47 76 96 90 85 99 99 100 100 96 90 80 63 51 69 72 74 72 73 72 72 70 67 68 73 81 82 93 97 97 98 98
26 24 25 26 27 36 41 35 31 29 34 41 52 92 100 89 96 100 100 100 100 91 85 72 52 72 73 71 68 72 74 71 69 61 62 65 71 73 74 96 97 98 98
26 26 25 28 30 33 45 39 32 30 31 39 44 49 96 100 92 100 100 100 100 95 90 77 49 73 74 71 66 69 71 71 70 62 58 59 63 64 64 66 90 96 97
24 25 26 31 32 34 45 48 39 32 31 38 45 51 70 90 100 95 98 100 100 99 94 80 50 63 74 70 65 62 69 71 69 68 57 56 56 58 58 60 67 77 82
23 23 22 32 34 33 34 50 53 51 52 51 50 52 73 95 100 100 100 100 100 100 97 87 47 58 70 67 62 62 71 70 71 70 67 66 61 64 68 70 71 72 76
22 24 24 23 29 37 60 67 79 87 54 55 54 56 78 71 93 94 100 100 100 99 96 86 55 54 70 65 63 72 73 74 75 73 71 71 71 70 72 73 74 75 76
28 23 22 21 20 33 45 58 71 63 61 47 46 52 74 82 84 100 97 100 100 100 99 92 59 62 71 62 70 76 91 81 76 72 72 73 71 72 73 74 74 75 76
32 27 25 22 20 21 34 57 72 77 76 75 80 69 69 79 98 99 100 100 97 99 98 89 67 53 69 65 61 69 96 93 84 73 71 71 71 72 74 72 70 70 74
32 30 26 24 24 21 29 66 81 79 84 84 71 63 70 65 89 98 100 100 98 99 98 88 73 50 59 69 70 64 63 68 89 90 79 73 73 74 72 70 72 74 74
32 29 27 25 28 27 28 55 70 80 77 72 81 81 77 71 82 99 94 96 100 100 99 89 75 62 60 60 70 74 73 72 71 83 92 92 79 75 76 78 77 77 80
32 30 28 30 30 32 43 64 77 78 82 83 87 94 99 90 82 92 98 86 87 100 99 94 79 69 65 62 70 72 70 76 83 80 91 95 90 89 85 84 82 81 79